Terug naar catalogus

SCOUT X-1 DEB

ActiefLEO
NORAD 4026·DEBRIS·🇺🇸 United States

Gelanceerd Feb 16, 1961 vanaf Wallops Flight Facility

Loading…

Volgende Passages (komende 24 uur)

TLE

VersSource: Space-Track

Epoch: Sep 14, 2026, 09:15 UTC

1 04026U 61004G   26257.38550117  .00003591  00000-0  67243-3 0  9998
2 04026  38.8208  29.0953 0369049  36.8172 325.7330 14.29871366146572

Volg SCOUT X-1 DEB in realtime met AllMySat

Download on the App Store